Location: Unspecified
(0.0000°N, 0.0000°E)
Time: 07:18:49
(UTC+00:00)

Vanguard 2 - Pass Details

Date: 09 December 2017
Orbit: 553 x 2939 km, 32.9° (Epoch: 23 January)

Event Time Altitude Azimuth Distance (km) Brightness Sun altitude
Rises 09:03:21 0° 222° (SW) 6,784 12.3 43.0°
Reaches altitude 10° 09:09:41 10° 209° (SSW) 5,752 12.1 44.3°
Maximum altitude 09:22:12 23° 163° (SSE) 4,320 12.3 46.9°
Drops below altitude 10° 09:32:23 10° 115° (ESE) 4,662 12.4 49.0°
Sets 09:36:40 0° 101° (ESE) 5,285 12.4 49.9°
